Weather History for KHOB - January, 2013

Change the Weather History Date:

Monday, January 28, 2013

  Actual Average Record
Temperature  
Mean Temperature 55 °F -  
Max Temperature 69 °F 56 °F 78 °F (2003)
Min Temperature 41 °F 30 °F 10 °F (1949)
Degree Days  
Heating Degree Days 10    
Growing Degree Days 5 (Base 50)    
Moisture  
Dew Point 31 °F    
Average Humidity 48    
Maximum Humidity 87    
Minimum Humidity 16    
Precipitation  
Precipitation 0.00 in - - ()
Sea Level Pressure  
Sea Level Pressure 29.88 in    
Wind  
Wind Speed 5 mph (SSW)    
Max Wind Speed 29 mph    
Max Gust Speed 36 mph    
Visibility 10 miles    
Events      
Averages and records for this station are not official NWS values.
T = Trace of Precipitation, MM = Missing Value Source: NWS Daily Summary

Daily Weather History Graph

Daily Weather History Graph

Search for Another Location

Airport or City:

Trip Planner

Search our weather history database for the weather conditions in past years. The results will help you decide how hot, cold, wet, or windy it might be!

Date:

Astronomy

Jan. 28, 2013 Rise Set
Actual Time 6:49 AM MST 5:22 PM MST
Civil Twilight 6:23 AM MST 5:48 PM MST
Nautical Twilight 5:54 AM MST 6:17 PM MST
Astronomical Twilight 5:25 AM MST 6:47 PM MST
Moon 7:09 PM MST (1/28) 7:24 AM MST (1/28)
Length of Visible Light 11h 24m
Length of Day
10h 32m
Full, 97% of the Moon is Illuminated
Jan 28
Full
Feb 3
Last Quarter
Feb 10
New
Feb 17
First Quarter
Feb 25
Full

Hourly Weather History & Observations

Time (MST) Temp. Windchill Dew Point Humidity Pressure Visibility Wind Dir Wind Speed Gust Speed Precip Events Conditions
12:15 AM 46.4 °F - 35.6 °F 66% 29.98 in 10.0 mi Calm Calm - N/A   Clear
12:35 AM 44.6 °F - 35.6 °F 71% 29.98 in 10.0 mi Calm Calm - N/A   Clear
12:55 AM 44.6 °F - 35.6 °F 71% 29.97 in 10.0 mi Calm Calm - N/A   Clear
1:15 AM 44.6 °F 40.2 °F 35.6 °F 71% 29.98 in 10.0 mi South 8.1 mph - N/A   Clear
1:35 AM 44.6 °F 40.2 °F 35.6 °F 71% 29.98 in 10.0 mi South 8.1 mph - N/A   Clear
1:55 AM 44.6 °F - 35.6 °F 71% 29.98 in 10.0 mi Calm Calm - N/A   Clear
2:15 AM 44.6 °F - 35.6 °F 71% 29.97 in 10.0 mi Calm Calm - N/A   Clear
2:35 AM 44.6 °F - 35.6 °F 71% 29.97 in 10.0 mi Calm Calm - N/A   Clear
2:55 AM 44.6 °F - 35.6 °F 71% 29.97 in 10.0 mi Calm Calm - N/A   Clear
3:15 AM 44.6 °F 42.2 °F 35.6 °F 71% 29.96 in 10.0 mi South 4.6 mph - N/A   Clear
3:35 AM 44.6 °F - 35.6 °F 71% 29.96 in 10.0 mi Calm Calm - N/A   Clear
3:55 AM 44.6 °F - 35.6 °F 71% 29.95 in 10.0 mi Calm Calm - N/A   Clear
5:50 AM 41.0 °F - 37.4 °F 87% 29.94 in 10.0 mi Calm Calm - N/A   Clear
6:50 AM 42.8 °F - 39.2 °F 87% 29.94 in 10.0 mi Calm Calm - N/A   Clear
7:45 AM 48.2 °F - 44.6 °F 87% 29.94 in 10.0 mi Calm Calm - N/A   Clear
8:50 AM 55.4 °F - 48.2 °F 77% 29.95 in 10.0 mi South 8.1 mph - N/A   Clear
9:50 AM 62.6 °F - 44.6 °F 52% 29.95 in 10.0 mi South 16.1 mph 20.7 mph N/A   Clear
10:50 AM 66.2 °F - 39.2 °F 37% 29.92 in 10.0 mi South 20.7 mph - N/A   Clear
11:50 AM 68.0 °F - 32.0 °F 26% 29.89 in 10.0 mi SSW 23.0 mph 28.8 mph N/A   Clear
12:50 PM 69.8 °F - 30.2 °F 23% 29.85 in 10.0 mi SSW 24.2 mph 33.4 mph N/A   Clear
1:50 PM 68.0 °F - 23.0 °F 18% 29.83 in 10.0 mi SSW 28.8 mph 35.7 mph N/A   Clear
2:50 PM 68.0 °F - 19.4 °F 16% 29.82 in 10.0 mi SSW 26.5 mph 34.5 mph N/A   Clear
3:50 PM 68.0 °F - 26.6 °F 21% 29.82 in 10.0 mi SSW 21.9 mph 29.9 mph N/A   Clear
4:50 PM 64.4 °F - 26.6 °F 24% 29.83 in 10.0 mi SSW 15.0 mph - N/A   Clear
5:15 PM 64.4 °F - 24.8 °F 22% 29.83 in 10.0 mi SW 12.7 mph - N/A   Clear
5:35 PM 62.6 °F - 23.0 °F 22% 29.83 in 10.0 mi SW 9.2 mph - N/A   Clear
5:45 PM 60.8 °F - 23.0 °F 23% 29.83 in 10.0 mi Calm Calm - N/A   Clear
5:55 PM 59.0 °F - 24.8 °F 27% 29.83 in 10.0 mi Calm Calm - N/A   Clear
6:15 PM 57.2 °F - 24.8 °F 29% 29.84 in 10.0 mi WSW 6.9 mph - N/A   Clear
6:55 PM 57.2 °F - 23.0 °F 27% 29.84 in 10.0 mi Calm Calm - N/A   Clear
7:15 PM 55.4 °F - 23.0 °F 29% 29.83 in 10.0 mi Calm Calm - N/A   Clear
8:15 PM 50.0 °F - 24.8 °F 37% 29.82 in 10.0 mi Calm Calm - N/A   Clear
8:55 PM 46.4 °F - 24.8 °F 43% 29.81 in 10.0 mi Calm Calm - N/A   Clear
9:15 PM 46.4 °F - 24.8 °F 43% 29.80 in 10.0 mi Calm Calm - N/A   Clear
9:35 PM 46.4 °F - 24.8 °F 43% 29.80 in 10.0 mi Calm Calm - N/A   Clear
9:55 PM 48.2 °F - 24.8 °F 40% 29.79 in 10.0 mi Calm Calm - N/A   Partly Cloudy
10:15 PM 46.4 °F - 26.6 °F 46% 29.78 in 10.0 mi Calm Calm - N/A   Scattered Clouds
10:55 PM 53.6 °F - 26.6 °F 35% 29.80 in 10.0 mi Calm Calm - N/A   Mostly Cloudy
11:15 PM 50.0 °F - 26.6 °F 40% 29.80 in 10.0 mi Calm Calm - N/A   Mostly Cloudy
11:35 PM 50.0 °F - 26.6 °F 40% 29.80 in 9.0 mi Calm Calm - N/A   Scattered Clouds
11:55 PM 50.0 °F - 26.6 °F 40% 29.80 in 10.0 mi Calm Calm - N/A   Clear